Regional Weather Roundup
Issued by NWS

Home | Current Version | Previous Version | Text Only | Print | Product List | Glossary Off
Versions: 1 2 3 4 5 6 7 8 9 10 11 12 13 14 15 16 17 18 19 20 21 22 23 24 25 26 27 28 29 30 31 32 33 34 35 36 37 38 39 40 41 42 43 44 45 46 47 48 49 50

000
ASUS43 KLOT 281802
RWRIL

ILLINOIS REGIONAL WEATHER ROUNDUP
NATIONAL WEATHER SERVICE CHICAGO/ROMEOVILLE IL
100 PM CDT THU MAY 28 2015

NOTE: "FAIR" INDICATES FEW OR NO CLOUDS BELOW 12,000 FEET WITH NO
SIGNIFICANT WEATHER AND/OR OBSTRUCTIONS TO VISIBILITY.

* THESE STATIONS ARE NOT UNDER NWS QUALITY CONTROL. THEY ALSO MAY NOT
  REPORT WEATHER SUCH AS PRECIPITATION OR FOG.

ILZ001-002-007-009-015-016-024-281900-
NORTHWEST ILLINOIS

CITY           SKY/WX    TMP DP  RH WIND       PRES   REMARKS
MOLINE         SUNNY     82  53  36 SE16      30.13F HX  81
6HR MIN TEMP:  60; 6HR MAX TEMP:  82;

STERLING*      SUNNY     81  57  44 S12       30.16S HX  81
$$

ILZ003-004-008-010-011-017-018-281900-
NORTH CENTRAL ILLINOIS

CITY           SKY/WX    TMP DP  RH WIND       PRES   REMARKS
ROCKFORD       PTSUNNY   81  57  43 S10       30.17F HX  81
6HR MIN TEMP:  62; 6HR MAX TEMP:  81;

$$

ILZ005-006-012>014-019>023-281900-
NORTHEAST ILLINOIS

CITY           SKY/WX    TMP DP  RH WIND       PRES   REMARKS
CHICAGO-OHARE  PTSUNNY   81  56  42 SE10G18   30.17F HX  81
6HR MIN TEMP:  61; 6HR MAX TEMP:  81;

CHICAGO-MIDWAY PTSUNNY   81  58  45 SE12      30.17F HX  81
6HR MIN TEMP:  63; 6HR MAX TEMP:  82;

AURORA         MOSUNNY   80  57  45 SE13G20   30.18F HX  80
6HR MIN TEMP:  59; 6HR MAX TEMP:  81;

WAUKEGAN       MOSUNNY   72  57  59 SE12      30.19S
6HR MIN TEMP:  60; 6HR MAX TEMP:  77;

DUPAGE AIRPORT MOSUNNY   80  58  46 S12       30.17F HX  80
6HR MIN TEMP:  60; 6HR MAX TEMP:  80;

WHEELING       MOSUNNY   79  55  43 E12G21    30.19F
6HR MIN TEMP:  60; 6HR MAX TEMP:  80;

NORTHERLY ISL    N/A     66  55  67 E6          N/A
$$

LMZ740>746-281900-
SOUTHERN LAKE MICHIGAN

STATION/POSITION SKY/WX   TEMP    WIND        PRES    VSBY  WAVE
                          AIR SEA DIR/SP/G                  HT/PER
                          (F)     (DEG/KT/KT) (MB)    (MI)  (FT/S)
SOUTHERN BUOY              45 39  160/  8/  8 1023.5F         0
HARRISON CRIB              67     110/ 12/ 13   N/A
BURNHAM HARBOR             65      CALM  /  6   N/A
CALUMET HARBOR             66      50/  7/  8   N/A
BURNS HARBOR               64      50/ 10/ 13 1023.0F
MICHIGAN CITY              69      20/  7/ 10   N/A
MICHIGAN CITY 6N           60 55   50/  6/  8   N/A           0
ST. JOSEPH                 63 59   30/  4/  8   N/A           0
$$

ILZ025>027-034>036-040-047-049-050-058-095>099-281900-
WEST-CENTRAL ILLINOIS

CITY           SKY/WX    TMP DP  RH WIND       PRES   REMARKS
QUINCY         PTSUNNY   77  59  53 SE10      30.14S
$$

ILZ028>032-037-038-041>044-048-051>054-059>061-281900-
CENTRAL ILLINOIS

CITY           SKY/WX    TMP DP  RH WIND       PRES   REMARKS
DECATUR        MOSUNNY   82  55  39 SE8G18    30.16S HX  81
PEORIA         MOSUNNY   82  53  36 SE10G20   30.15F HX  81
6HR MIN TEMP:  64; 6HR MAX TEMP:  82;

SPRINGFIELD    PTSUNNY   82  58  43 SE12G20   30.16S HX  82
6HR MIN TEMP:  65; 6HR MAX TEMP:  83;

TAYLORVILLE    NOT AVBL
$$

ILZ033-039-045-046-055>057-062-063-281900-
EAST-CENTRAL ILLINOIS

CITY           SKY/WX    TMP DP  RH WIND       PRES   REMARKS
CHAMPAIGN      SUNNY     83  49  30 E13       30.17F HX  81
$$

ILZ079-100>102-281900-
SOUTHWEST ILLINOIS

CITY           SKY/WX    TMP DP  RH WIND       PRES   REMARKS
BELLEVILLE     PTSUNNY   82  70  66 S13G18    30.13F HX  85
CAHOKIA*       MOSUNNY   84  66  54 S9        30.13F HX  86
$$

ILZ064>066-069>071-074>076-080>082-084>086-088>090-092>094-281900-
SOUTH-CENTRAL ILLINOIS

CITY           SKY/WX    TMP DP  RH WIND       PRES   REMARKS
CARBONDALE     MOSUNNY   82  66  58 S10       30.15S HX  84
6HR MIN TEMP:  68; 6HR MAX TEMP:  82;

MT. VERNON     MOSUNNY   82  70  65 SW10      30.16S HX  86
$$

ILZ067-068-072-073-078-083-087-091-281900-
SOUTHEAST ILLINOIS

CITY           SKY/WX    TMP DP  RH WIND       PRES   REMARKS
LAWRENCEVILLE  PTSUNNY   81  65  58 SE5       30.15F HX  83
FLORA*         SUNNY     81  65  58 S9        30.16R HX  83
$$

ABBREVIATIONS USED IN REMARKS
   TC - TEMPERATURE IN CELSIUS
  WCI - WIND CHILL INDEX
   HX - HEAT INDEX
  VSB - VISIBILITY
$$




USA.gov is the U.S. government's official web portal to all federal, state and local government web resources and services.